[[{"header":{"parameterUnit":"m.s-1","parameterCategory":1,"la1":30.2991,"la2":30.254,"lo1":-89.0895,"lo2":-89.0444,"dy":0.0017,"dx":0.0017,"nx":28,"ny":28,"refTime":"2024-04-07T09:00:00:Z","depth":0,"parameterNumber":2,"parameterNumberName":"U-component_of_WINDS"},"data":[0,0,0,0,0,0,0,0,0,0,0,0,0,0,0,0,0,0,0,0,0,0,0,0,0,0,0,0,0,0,0,0,0,0,0,0,0,0,0,0,0,0,0,0,0,0,0,0,0,0,0,0,0,0,0,0,0,0,-1.3396,-1.3396,0,-1.3393,-1.3393,-1.3393,-1.3367,-1.3366,-1.3365,-1.3365,-1.3362,-1.3363,-1.3363,0,0,0,0,0,0,0,0,0,0,0,0,0,-1.3377,-1.3378,-1.3396,-1.3396,-1.3396,-1.3393,-1.3393,-1.3393,-1.3367,-1.3366,-1.3365,-1.3364,-1.3362,-1.3363,-1.3363,0,0,0,0,0,0,0,0,0,0,0,0,0,-1.3381,-1.3378,-1.3396,-1.3382,-1.3381,-1.3393,-1.3393,-1.3393,-1.3367,-1.3366,-1.3365,-1.3364,-1.3362,-1.3363,-1.3364,-1.3389,0,0,-1.3366,-1.3367,0,0,0,0,0,0,0,0,-1.3381,-1.3382,-1.3384,-1.3383,-1.3382,-1.3379,-1.3386,-1.3392,-1.3367,-1.3372,-1.3365,-1.3363,-1.3369,-1.3369,-1.3371,-1.3389,-1.3389,-1.3366,-1.3367,-1.3367,-1.3367,0,0,0,0,0,0,0,-1.3381,-1.3382,-1.3395,-1.3384,-1.3383,-1.3376,-1.3376,-1.3387,-1.3376,-1.3372,-1.337,-1.337,-1.3368,-1.337,-1.3371,-1.3389,-1.3366,-1.3367,-1.3368,-1.3368,-1.3427,-1.3428,0,0,0,0,0,0,-1.3382,-1.3382,-1.3395,-1.3395,-1.3379,-1.3377,-1.3377,-1.3381,-1.3376,-1.3374,-1.3371,-1.3369,-1.3369,-1.337,-1.337,-1.3399,-1.3367,-1.3368,-1.3368,-1.3426,-1.3427,-1.3428,0,0,0,0,0,0,-1.3382,-1.3384,-1.3395,-1.3388,-1.3389,-1.3379,-1.3384,-1.3382,-1.3384,-1.3375,-1.3373,-1.3375,-1.3368,-1.3369,-1.3384,-1.3399,-1.3368,-1.3369,-1.3424,-1.3426,-1.3427,-1.3457,0,0,0,0,0,0,-1.3382,-1.3384,-1.3394,-1.3388,-1.3389,-1.3409,-1.3385,-1.3382,-1.3385,-1.3382,-1.3379,-1.3377,-1.3368,-1.3383,-1.3385,-1.3399,-1.337,-1.3423,-1.3425,-1.3427,-1.3455,-1.346,-1.3464,0,0,0,0,0,-1.3381,-1.3403,-1.3394,-1.3396,-1.3401,-1.341,-1.3411,-1.34,-1.3386,-1.3396,-1.339,-1.3377,-1.3397,-1.3385,-1.3387,-1.3402,-1.3422,-1.3424,-1.3427,-1.3453,-1.3459,-1.3464,0,0,0,0,0,0,-1.341,-1.3402,-1.3392,-1.3413,-1.3412,-1.3406,-1.3418,-1.3406,-1.341,-1.3407,-1.3393,-1.3392,-1.3409,-1.3407,-1.3394,-1.3425,-1.3407,-1.341,-1.3426,-1.3432,-1.3436,-1.3436,-1.337,0,0,0,0,0,-1.3419,-1.3427,-1.3419,-1.3438,-1.3438,-1.3428,-1.3431,-1.3423,-1.3422,-1.3422,-1.3417,-1.3417,-1.3423,-1.3427,-1.3432,-1.3454,-1.3453,-1.3465,-1.347,-1.3473,-1.3476,-1.3486,-1.3492,-1.3436,-1.3436,-1.3436,0,0,-1.3437,-1.3434,-1.344,-1.3444,-1.3442,-1.3451,-1.3428,-1.3438,-1.3444,-1.3423,-1.3437,-1.3434,-1.3432,-1.3451,-1.3459,-1.345,-1.3491,-1.3476,-1.3479,-1.348,-1.3489,-1.3495,-1.3499,-1.3437,-1.3437,-1.3437,0,0,-1.3475,-1.3473,-1.3488,-1.3487,-1.3485,-1.3478,-1.3482,-1.3476,-1.3473,-1.3487,-1.3471,-1.3478,-1.3489,-1.3488,-1.3489,-1.3525,-1.3513,-1.3528,-1.355,-1.3561,-1.3565,-1.3569,-1.3581,-1.3586,-1.353,-1.353,-1.353,0,-1.3498,-1.351,-1.3497,-1.3508,-1.351,-1.3491,-1.3505,-1.3505,-1.3505,-1.3507,-1.3496,-1.3509,-1.3507,-1.3524,-1.3533,-1.3535,-1.3538,-1.3528,-1.3566,-1.3569,-1.3573,-1.3584,-1.3589,-1.3532,-1.3532,-1.3532,-1.3531,0,-1.3538,-1.3546,-1.3559,-1.3559,-1.3562,-1.3575,-1.3563,-1.3568,-1.3559,-1.3553,-1.3566,-1.3563,-1.3567,-1.357,-1.3562,-1.3586,-1.358,-1.3568,-1.3549,-1.358,-1.359,-1.3595,-1.3534,-1.3534,-1.3533,-1.3533,0,0,-1.3594,-1.3586,-1.3591,-1.359,-1.3586,-1.3592,-1.3604,-1.3607,-1.3611,-1.3612,-1.3621,-1.363,-1.3618,-1.3619,-1.361,-1.3619,-1.3647,-1.3606,-1.3605,-1.3613,-1.3673,-1.3682,-1.3688,-1.3639,-1.364,-1.364,-1.3673,0,-1.363,-1.3649,-1.3637,-1.3658,-1.3665,-1.3647,-1.3657,-1.3655,-1.365,-1.3655,-1.3649,-1.3655,-1.3639,-1.364,-1.3648,-1.3642,-1.3659,-1.364,-1.3647,-1.3647,-1.3647,-1.3693,-1.3703,-1.3734,-1.3677,-1.3678,-1.3678,0,-1.3674,-1.3676,-1.3697,-1.3691,-1.3693,-1.3703,-1.3704,-1.3709,-1.3707,-1.3702,-1.3703,-1.3691,-1.3702,-1.3684,-1.3697,-1.3684,-1.3686,-1.3684,-1.3685,-1.3685,-1.3664,-1.3694,-1.3744,-1.3748,-1.3685,-1.3684,-1.3684,0,-1.3712,-1.372,-1.3733,-1.3733,-1.3727,-1.3733,-1.3731,-1.3727,-1.373,-1.3731,-1.3732,-1.3735,-1.3736,-1.3738,-1.3727,-1.3715,-1.3742,-1.3723,-1.3738,-1.3738,-1.3744,-1.3744,-1.3795,-1.3747,-1.3747,-1.3747,-1.3747,0,-1.3753,-1.3767,-1.375,-1.3759,-1.3773,-1.3759,-1.3774,-1.3769,-1.3766,-1.3773,-1.3757,-1.3764,-1.375,-1.3755,-1.3746,-1.3758,-1.3759,-1.3755,-1.3753,-1.3757,-1.3757,-1.3758,-1.3755,-1.3748,-1.3748,-1.3747,-1.3747,0,-1.3798,-1.3788,-1.3801,-1.3793,-1.3791,-1.3802,-1.3795,-1.3802,-1.3795,-1.3804,-1.3805,-1.3795,-1.38,-1.3789,-1.3793,-1.3787,-1.3804,-1.3798,-1.3805,-1.3803,-1.3818,-1.3817,-1.3871,-1.3877,-1.3825,-1.3826,-1.3826,0,-1.3825,-1.3835,-1.3827,-1.3831,-1.3829,-1.3834,-1.3836,-1.3823,-1.3825,-1.3823,-1.383,-1.3834,-1.3836,-1.3845,-1.3837,-1.384,-1.3833,-1.3852,-1.3834,-1.3837,-1.3833,-1.3832,-1.3833,-1.3856,-1.3857,-1.3857,-1.3858,0,-1.3873,-1.3867,-1.387,-1.3872,-1.3874,-1.3875,-1.3874,-1.3878,-1.3863,-1.3867,-1.3871,-1.3873,-1.3876,-1.388,-1.388,-1.3877,-1.3865,-1.3863,-1.3867,-1.3871,-1.3874,-1.3871,-1.3814,-1.3862,-1.3862,-1.3861,-1.3861,-1.3861,-1.3909,-1.3917,-1.3912,-1.3916,-1.3914,-1.3914,-1.392,-1.3913,-1.3917,-1.3918,-1.391,-1.3916,-1.3912,-1.3911,-1.391,-1.3914,-1.3906,-1.3911,-1.3912,-1.3914,-1.3916,-1.3873,-1.3914,-1.3914,-1.3914,-1.3914,-1.3914,0,-1.3956,-1.3952,-1.3956,-1.3955,-1.3958,-1.3945,-1.3944,-1.3947,-1.3952,-1.395,-1.3952,-1.3957,-1.396,-1.3952,-1.3954,-1.3959,-1.3953,-1.396,-1.3959,-1.3958,-1.3924,-1.392,-1.3964,-1.3964,-1.3964,-1.3964,-1.3964,-1.3964,-1.3981,-1.3992,-1.3986,-1.3996,-1.3992,-1.3997,-1.3997,-1.3997,-1.3994,-1.4,-1.4003,-1.3997,-1.3992,-1.3993,-1.3995,-1.3993,-1.3994,-1.4002,-1.3998,-1.3966,-1.3961,-1.3956,-1.3953,-1.4003,-1.4003,-1.4032,-1.4032,-1.4033]},{"header":{"parameterUnit":"m.s-1","parameterCategory":1,"la1":30.2991,"la2":30.254,"lo1":-89.0895,"lo2":-89.0444,"dy":0.0017,"dx":0.0017,"nx":28,"ny":28,"refTime":"2024-04-07T09:00:00:Z","depth":0,"parameterNumber":3,"parameterNumberName":"V-component_of_WINDS"},"data":[0,0,0,0,0,0,0,0,0,0,0,0,0,0,0,0,0,0,0,0,0,0,0,0,0,0,0,0,0,0,0,0,0,0,0,0,0,0,0,0,0,0,0,0,0,0,0,0,0,0,0,0,0,0,0,0,0,0,2.6683,2.6683,0,2.6629,2.6629,2.6628,2.6502,2.6499,2.6497,2.6494,2.6442,2.6443,2.6444,0,0,0,0,0,0,0,0,0,0,0,0,0,2.6681,2.6682,2.6683,2.6683,2.6682,2.6629,2.6629,2.6628,2.6502,2.6499,2.6496,2.6493,2.6442,2.6443,2.6445,0,0,0,0,0,0,0,0,0,0,0,0,0,2.666,2.6682,2.6683,2.6613,2.6606,2.6629,2.6629,2.6628,2.6503,2.6499,2.6495,2.6492,2.6442,2.6443,2.6445,2.6533,0,0,2.645,2.645,0,0,0,0,0,0,0,0,2.6662,2.6661,2.6624,2.6618,2.661,2.6568,2.6609,2.6596,2.6504,2.6542,2.6494,2.649,2.6488,2.6485,2.6484,2.6531,2.6529,2.645,2.6451,2.6451,2.6452,0,0,0,0,0,0,0,2.6663,2.6662,2.6662,2.6624,2.6615,2.6585,2.6578,2.6606,2.6538,2.6539,2.6529,2.6525,2.6483,2.6483,2.6482,2.6528,2.645,2.6451,2.6452,2.6453,2.6644,2.6648,0,0,0,0,0,0,2.6674,2.6664,2.6664,2.666,2.6627,2.6588,2.658,2.6586,2.6537,2.6526,2.6528,2.6519,2.6482,2.648,2.6479,2.6579,2.6451,2.6453,2.6454,2.664,2.6645,2.6649,0,0,0,0,0,0,2.6675,2.6676,2.6666,2.666,2.6656,2.6592,2.66,2.6587,2.6586,2.6529,2.6517,2.654,2.6479,2.6477,2.652,2.6575,2.6454,2.6455,2.6635,2.6642,2.6647,2.6779,0,0,0,0,0,0,2.6675,2.6676,2.6709,2.6661,2.6657,2.6707,2.6603,2.6589,2.6589,2.6576,2.6537,2.6526,2.6475,2.6519,2.6522,2.6575,2.6456,2.663,2.6638,2.6645,2.6769,2.6789,2.6806,0,0,0,0,0,2.6676,2.6749,2.6711,2.6711,2.6696,2.671,2.6708,2.6647,2.6594,2.6626,2.6589,2.6528,2.6569,2.6524,2.6527,2.6581,2.6626,2.6636,2.6645,2.6761,2.6785,2.6805,0,0,0,0,0,0,2.6805,2.6741,2.6698,2.6758,2.6741,2.6689,2.6728,2.6674,2.6672,2.6661,2.6586,2.6579,2.6632,2.6611,2.6562,2.6664,2.6588,2.6598,2.6675,2.6698,2.6715,2.6719,2.6458,0,0,0,0,0,2.6841,2.6857,2.6801,2.6859,2.6852,2.6792,2.6796,2.6751,2.673,2.6722,2.6689,2.6672,2.6681,2.6688,2.6693,2.6766,2.6756,2.6805,2.6824,2.6839,2.6848,2.6884,2.6905,2.668,2.668,2.668,0,0,2.6914,2.6881,2.6896,2.6884,2.6865,2.6884,2.6786,2.6811,2.6825,2.6726,2.6764,2.674,2.6716,2.6774,2.6798,2.6758,2.6908,2.685,2.6863,2.6864,2.6896,2.6918,2.6937,2.6686,2.6685,2.6684,0,0,2.7057,2.7035,2.708,2.7063,2.7035,2.6994,2.7006,2.6962,2.6941,2.6978,2.6904,2.6921,2.6938,2.6924,2.6919,2.7058,2.7001,2.7062,2.7156,2.7192,2.721,2.7225,2.7274,2.7292,2.7072,2.7072,2.7072,0,2.7152,2.7177,2.711,2.7139,2.7136,2.7047,2.7093,2.708,2.7056,2.7056,2.7012,2.7031,2.7009,2.7063,2.7096,2.7096,2.7107,2.7065,2.7213,2.7227,2.7241,2.7286,2.7305,2.708,2.7079,2.7078,2.7077,0,2.7295,2.7314,2.7354,2.7331,2.7333,2.7371,2.731,2.732,2.7275,2.724,2.7279,2.725,2.7247,2.7257,2.7214,2.7304,2.728,2.7226,2.7147,2.7271,2.7312,2.7329,2.709,2.7088,2.7085,2.7084,0,0,2.7517,2.7457,2.7473,2.7461,2.7424,2.7438,2.7472,2.7468,2.7478,2.7465,2.7492,2.7509,2.7458,2.7453,2.7407,2.744,2.755,2.7381,2.7379,2.7412,2.7648,2.7688,2.7709,2.7513,2.7516,2.7519,2.7649,0,2.765,2.7702,2.7644,2.7709,2.7726,2.7642,2.7671,2.7653,2.7621,2.7631,2.7597,2.7609,2.7542,2.7538,2.7566,2.7531,2.7597,2.7521,2.7537,2.7539,2.7544,2.7731,2.7774,2.7898,2.7665,2.7668,2.767,0,2.7812,2.7805,2.7872,2.783,2.7835,2.7862,2.7854,2.7865,2.7843,2.7817,2.7812,2.7757,2.7788,2.7713,2.7755,2.7705,2.7709,2.7693,2.7696,2.7694,2.7611,2.7733,2.7936,2.7955,2.7695,2.7693,2.7691,0,2.7965,2.7973,2.8014,2.8007,2.796,2.7981,2.7963,2.7936,2.7938,2.7932,2.7932,2.793,2.7929,2.7929,2.7876,2.7826,2.7925,2.7845,2.7905,2.7906,2.7928,2.7927,2.8134,2.7933,2.7933,2.7932,2.7932,0,2.8119,2.8163,2.8082,2.8107,2.8154,2.8087,2.8136,2.8109,2.8086,2.8105,2.8034,2.8054,2.7982,2.7995,2.7954,2.7995,2.7995,2.7976,2.7964,2.7981,2.7984,2.7981,2.7971,2.7937,2.7936,2.7935,2.7934,0,2.8297,2.8245,2.8283,2.8236,2.8225,2.8262,2.8221,2.8243,2.8207,2.8232,2.8234,2.8178,2.8189,2.8136,2.8139,2.8111,2.8172,2.8147,2.8179,2.8171,2.8233,2.8228,2.8444,2.8469,2.8255,2.8257,2.8258,0,2.8398,2.843,2.8385,2.8392,2.8377,2.839,2.8391,2.8327,2.8331,2.8308,2.8333,2.8337,2.8338,2.8359,2.832,2.8321,2.8294,2.837,2.8294,2.831,2.8294,2.8292,2.8294,2.8385,2.8388,2.839,2.8392,0,2.8582,2.8555,2.8558,2.8553,2.8556,2.8549,2.8537,2.8548,2.8478,2.8487,2.8497,2.8497,2.8499,2.8504,2.8498,2.848,2.8425,2.8417,2.843,2.8447,2.8465,2.8455,2.8221,2.8412,2.841,2.8408,2.8407,2.8406,2.8724,2.8748,2.872,2.8726,2.8711,2.8702,2.8719,2.8686,2.8692,2.8687,2.865,2.8667,2.8644,2.8629,2.8617,2.863,2.8594,2.8614,2.8619,2.8624,2.8635,2.8464,2.8628,2.8628,2.8627,2.8627,2.8626,0,2.8903,2.8881,2.8887,2.8873,2.8878,2.8826,2.881,2.8819,2.8834,2.8817,2.8818,2.883,2.8835,2.8796,2.8797,2.8815,2.879,2.8817,2.8814,2.8811,2.8667,2.8655,2.8837,2.8837,2.8837,2.8837,2.8837,2.8837,2.8996,2.9034,2.9004,2.9033,2.9011,2.9026,2.9022,2.9013,2.8999,2.9015,2.9018,2.8993,2.8967,2.8965,2.8968,2.8956,2.8959,2.8995,2.8975,2.8842,2.8821,2.8801,2.8789,2.8997,2.8997,2.9118,2.9119,2.912]}]]